COSMOS 2251 DEB, 40799

Orbit data source: Space-Track

COSMOS 2251 DEB, 40799 is space debris in LEO originally from a launch on Wed, 16 Jun 1993 UTC launched from the Plesetsk Missile And Space Complex (PKMTR). The debris from Iridium 33, an American commercial communications satellite, has been tracked extensively since its accidental collision with the defunct Russian satellite Cosmos 2251 in 2009. This event, occurring at high speed in low Earth orbit (LEO), generated thousands of pieces of space debris, significantly increasing the risk of further collisions. The Iridium 33 debris cloud has impacted space traffic management and orbital debris mitigation strategies, making it a subject of ongoing study in space situational awareness.

Loading next visibility...
Identifier
40799, 1993-036BWC
Orbit
LEO
Country
Flag of CISCIS
Related business
Manufacturer
Unknown
Mission
Spacecraft
Bus & Motor
Unknown
Mass
Unknown
Launch date (UTC)
1993-06-16 (33 years ago)
Launch vehicle
Unknown
Launch site
Plesetsk Missile And Space Complex (PKMTR)
Object type
Payload
Rocket body
Debris
Shape & HBR
Unknown shape, 0.1 m
Radar Cross Section
Small (<0.1 m²)

Expand to show TLE details & history
Last TLE update: 2 days ago

TLE from 2 days ago
0 COSMOS 2251 DEB
1 40799U 93036BWC 25353.97417050  .00002662  00000-0  20523-3 0  9992
2 40799  73.9272  83.6344 0119254 324.0536  35.2666 14.96721244500850
Epoch: 2025-12-19T23:22Z
TLE epoch observation values (Epoch: 2025-12-19T23:22:48.331Z)
Latitude
-0.00001°
Longitude
4.12539°
Altitude
512.316 km
Speed
7.645 km/s
True Right ascension
05h 34m 32s
True Declination
0° 00' 00"
Sunlit
Object was in full shadow at epoch
Visualization orbit readout
Latitude
Unknown
Longitude
Unknown
Altitude
Unknown
Speed
Unknown
Apparent Right ascension
Unknown
Apparent Declination
Unknown
Sunlit
N/A
Visualization observer readout
Local Sidereal Time
11:14:43
Azimuth
Unknown
Elevation
Unknown
Doppler factor
Unknown
Orbital elements
Apogee altitude
657.516 km
Perigee altitude
491.687 km
Semi-major axis
6,952.739 km
Eccentricity
0.01193
Inclination
73.9272°
RAAN
83.6344°
Arg. of periapsis
324.0536°
True anomaly
36.06531°
Mean anomaly
35.2666°
Eccentric anomaly
35.66498°
Mean motion
3.74377 °/min
Orbital period
96.16 mins
BSTAR
0.00020523
Loading maneuver chart data...
Computing Atmospheric mass density...
Loading historical data...
Loading historical data...
Loading historical data...
Loading historical data...
Loading historical data...
Loading historical data...
Loading historical data...

Documentation

Showing up to 5 results
|